Regional Weather Roundup
Issued by NWS State College, PA

Home | Current Version | Previous Version | Text Only | Print | Product List | Glossary Off
Versions: 1 2 3 4 5 6 7 8 9 10 11 12 13 14 15 16 17 18 19 20 21 22 23 24 25 26 27 28 29 30 31 32 33 34 35 36 37 38 39 40 41 42 43 44 45 46 47 48 49 50

000
ASUS41 KCTP 310810
RWRCTP

REGIONAL WEATHER ROUNDUP
NATIONAL WEATHER SERVICE STATE COLLEGE PA
400 AM EDT FRI JUL 31 2015

Note: "fair" indicates few or no clouds below 12,000 feet with no
significant weather and/or obstructions to visibility.

* = STATION THAT DOES NOT REPORT PRECIPITATION /E.G. RAIN...SNOW...ETC/
    THUNDER OR FOG.

PAZ002>004-007>009-013>016-020>023-029>032-310900-
WESTERN PENNSYLVANIA

CITY           SKY/WX    TMP DP  RH WIND       PRES   REMARKS
ERIE           CLEAR     70  62  76 SW6       29.93S
MEADVILLE      CLEAR     66  59  78 SW3       29.98S
FRANKLIN*      CLEAR     63  55  77 W7        29.99S
NEW CASTLE     FAIR      62  60  93 CALM      29.99F
BEAVER COUNTY  NOT AVBL
BUTLER*        PTCLDY    61  57  88 W3        30.00S
PITTSBURGH INT CLEAR     66  57  72 W3        29.99S
PITTSBURGH     PTCLDY    68  54  60 W6        29.98F
INDIANA*       MOCLDY    66  61  82 CALM      30.01F
LATROBE        NOT AVBL
WASHINGTON CO* NOT AVBL
$$

PAZ004>006-010>012-017>019-024>028-033>037-041-042-045-046-049>053-310900-
CENTRAL PENNSYLVANIA

CITY           SKY/WX    TMP DP  RH WIND       PRES   REMARKS
BRADFORD       CLEAR     53  51  93 CALM      29.97F
DUBOIS         PTCLDY    63  55  75 SW6       29.97F
CLEARFIELD     PTCLDY    60  56  86 S3        29.97F
JOHNSTOWN      CLEAR     65  55  70 W10       30.01F
ALTOONA        CLEAR     62  56  80 SW7       29.98F
STATE COLLEGE  PTCLDY    61  57  88 CALM      29.95S
WILLIAMSPORT   CLEAR     62  58  86 CALM      29.91S
SELINSGROVE    CLEAR     60  58  92 CALM      29.92S
FT INDIANTOWN  CLEAR     65  58  79 VRB1      29.90F
CAPITAL CITY   CLEAR     67  59  75 CALM      29.91S
HARRISBURG     PTCLDY    68  60  75 NW5       29.90S
YORK           CLEAR     61  60  97 CALM      29.93S
$$

PAZ038>040-043-044-047-048-054-055-060>062-067>071-310900-
EASTERN PENNSYLVANIA

CITY           SKY/WX    TMP DP  RH WIND       PRES   REMARKS
SCRANTON       PTCLDY    63  58  83 S3        29.90F
MOUNT POCONO   CLEAR     61  55  81 NW7       29.93F
ALLENTOWN      CLEAR     65  62  90 SW5       29.89S
QUAKERTOWN*    SUNNY     64  63  94 CALM      29.90S
READING        CLEAR     69  60  73 CALM      29.89S
LANCASTER      CLEAR     65  60  84 W5        29.91S
COATESVILLE    SUNNY     66  61  82 NW6       29.92S
POTTSTOWN      CLEAR     66  63  90 NW3       29.91R
BLUE BELL      CLEAR     66  64  94 CALM      29.88S
DOYLESTOWN     CLEAR     69  62  78 CALM      29.88R
WILLOW GROVE   NOT AVBL
NORTH PHILA    CLEAR     73  63  70 NW8       29.89R
PHILADELPHIA   CLEAR     74  63  68 NW9       29.88R
$$



USA.gov is the U.S. government's official web portal to all federal, state and local government web resources and services.